Time,TemperatureF,DewpointF,PressureIn,WindDirection,WindDirectionDegrees,WindSpeedMPH,WindSpeedGustMPH,Humidity,HourlyPrecipIn,Conditions,Clouds,dailyrainin,SoftwareType,DateUTC
2013-01-02 00:00:00,19.9,14.2,30.00,SW,228,2.0,6.0,78,0.00,CLR,FEW,0.00,WeatherDisplay:10.37,2013-01-02 05:00:00,
2013-01-02 00:05:00,20.1,14.4,30.03,SW,225,2.0,2.0,78,0.00,CLR,FEW,0.00,WeatherDisplay:10.37,2013-01-02 05:05:00,
2013-01-02 00:10:00,19.6,13.8,30.03,WSW,237,2.0,7.0,78,0.00,CLR,FEW,0.00,WeatherDisplay:10.37,2013-01-02 05:10:00,
2013-01-02 00:15:00,19.9,13.9,30.03,West,268,3.0,7.0,77,0.00,CLR,FEW,0.00,WeatherDisplay:10.37,2013-01-02 05:15:00,
2013-01-02 00:20:00,19.4,13.4,30.03,SW,232,3.0,6.0,77,0.00,CLR,FEW,0.00,WeatherDisplay:10.37,2013-01-02 05:20:00,
2013-01-02 00:25:00,19.8,13.7,30.00,SW,226,3.0,4.0,77,0.00,CLR,FEW,0.00,WeatherDisplay:10.37,2013-01-02 05:25:00,
2013-01-02 00:30:00,19.8,13.7,30.00,WSW,240,3.0,10.0,77,0.00,CLR,FEW,0.00,WeatherDisplay:10.37,2013-01-02 05:30:00,
2013-01-02 00:40:00,19.8,13.7,30.00,SW,218,5.0,5.0,77,0.00,CLR,FEW,0.00,WeatherDisplay:10.37,2013-01-02 05:40:00,
2013-01-02 00:50:00,19.8,14.0,30.00,SW,233,5.0,6.0,78,0.00,CLR,FEW,0.00,WeatherDisplay:10.37,2013-01-02 05:50:00,
2013-01-02 01:00:00,19.0,13.0,30.00,SW,232,2.0,2.0,77,0.00,CLR,FEW,0.00,WeatherDisplay:10.37,2013-01-02 06:00:00,
2013-01-02 01:05:00,18.9,13.1,30.00,WSW,241,3.0,8.0,78,0.00,CLR,FEW,0.00,WeatherDisplay:10.37,2013-01-02 06:05:00,
2013-01-02 01:10:00,19.0,13.3,30.00,WSW,237,3.0,8.0,78,0.00,CLR,FEW,0.00,WeatherDisplay:10.37,2013-01-02 06:10:00,
2013-01-02 01:20:00,19.6,13.8,30.00,SW,227,7.0,7.0,78,0.00,CLR,FEW,0.00,WeatherDisplay:10.37,2013-01-02 06:20:00,
2013-01-02 01:25:00,19.2,13.5,30.00,SW,236,7.0,8.0,78,0.00,CLR,FEW,0.00,WeatherDisplay:10.37,2013-01-02 06:25:00,
2013-01-02 01:30:00,18.9,13.1,30.00,WSW,249,5.0,8.0,78,0.00,CLR,FEW,0.00,WeatherDisplay:10.37,2013-01-02 06:30:00,
2013-01-02 01:40:00,18.7,13.0,30.00,SW,230,3.0,3.0,78,0.00,CLR,FEW,0.00,WeatherDisplay:10.37,2013-01-02 06:40:00,
2013-01-02 01:50:00,19.0,13.3,30.00,SW,227,2.0,5.0,78,0.00,CLR,FEW,0.00,WeatherDisplay:10.37,2013-01-02 06:50:00,
2013-01-02 02:00:00,18.3,12.6,30.00,WSW,258,2.0,5.0,78,0.00,CLR,FEW,0.00,WeatherDisplay:10.37,2013-01-02 07:00:00,
2013-01-02 02:05:00,17.1,11.4,30.00,WSW,245,1.0,5.0,78,0.00,CLR,FEW,0.00,WeatherDisplay:10.37,2013-01-02 07:05:00,
2013-01-02 02:10:00,17.1,11.4,30.00,WSW,237,1.0,1.0,78,0.00,CLR,FEW,0.00,WeatherDisplay:10.37,2013-01-02 07:10:00,
2013-01-02 02:20:00,16.3,11.0,30.00,WSW,241,1.0,3.0,79,0.00,CLR,FEW,0.00,WeatherDisplay:10.37,2013-01-02 07:20:00,
2013-01-02 02:25:00,15.8,10.4,30.00,SW,226,1.0,1.0,79,0.00,CLR,FEW,0.00,WeatherDisplay:10.37,2013-01-02 07:25:00,
2013-01-02 02:30:00,16.0,10.6,30.00,SW,220,1.0,1.0,79,0.00,CLR,FEW,0.00,WeatherDisplay:10.37,2013-01-02 07:30:00,
2013-01-02 02:40:00,15.1,10.0,30.00,SW,225,1.0,0.0,80,0.00,CLR,FEW,0.00,WeatherDisplay:10.37,2013-01-02 07:40:00,
2013-01-02 02:45:00,14.7,9.7,30.03,SW,215,0.0,0.0,80,0.00,CLR,FEW,0.00,WeatherDisplay:10.37,2013-01-02 07:45:00,
2013-01-02 02:50:00,14.4,9.3,30.03,SW,215,0.0,0.0,80,0.00,CLR,FEW,0.00,WeatherDisplay:10.37,2013-01-02 07:50:00,
2013-01-02 03:00:00,14.0,9.2,30.00,SW,215,0.0,0.0,81,0.00,CLR,FEW,0.00,WeatherDisplay:10.37,2013-01-02 08:00:00,
2013-01-02 03:05:00,13.6,8.9,30.00,SW,215,0.0,0.0,81,0.00,CLR,FEW,0.00,WeatherDisplay:10.37,2013-01-02 08:05:00,
2013-01-02 03:10:00,13.6,9.2,30.00,SW,215,0.0,0.0,82,0.00,CLR,FEW,0.00,WeatherDisplay:10.37,2013-01-02 08:10:00,
2013-01-02 03:15:00,13.6,9.2,30.00,SW,215,0.0,0.0,82,0.00,CLR,FEW,0.00,WeatherDisplay:10.37,2013-01-02 08:15:00,
2013-01-02 03:20:00,13.3,8.8,30.00,SW,215,0.0,0.0,82,0.00,CLR,FEW,0.00,WeatherDisplay:10.37,2013-01-02 08:20:00,
2013-01-02 03:30:00,13.3,8.8,30.00,SW,215,0.0,0.0,82,0.00,CLR,FEW,0.00,WeatherDisplay:10.37,2013-01-02 08:30:00,
2013-01-02 03:40:00,12.6,8.1,30.00,SW,215,0.0,0.0,82,0.00,CLR,FEW,0.00,WeatherDisplay:10.37,2013-01-02 08:40:00,
2013-01-02 03:45:00,12.2,7.8,30.00,SW,215,0.0,0.0,82,0.00,CLR,FEW,0.00,WeatherDisplay:10.37,2013-01-02 08:45:00,
2013-01-02 03:50:00,12.2,7.8,30.00,SW,215,0.0,0.0,82,0.00,CLR,FEW,0.00,WeatherDisplay:10.37,2013-01-02 08:50:00,
2013-01-02 04:00:00,11.8,7.7,30.00,SW,215,0.0,0.0,83,0.00,CLR,FEW,0.00,WeatherDisplay:10.37,2013-01-02 09:00:00,
2013-01-02 04:05:00,11.7,7.5,30.00,SW,215,0.0,0.0,83,0.00,CLR,FEW,0.00,WeatherDisplay:10.37,2013-01-02 09:05:00,
2013-01-02 04:10:00,11.8,7.7,30.00,SW,215,0.0,0.0,83,0.00,CLR,FEW,0.00,WeatherDisplay:10.37,2013-01-02 09:10:00,
2013-01-02 04:15:00,11.8,7.9,30.00,SW,221,0.0,0.0,84,0.00,CLR,FEW,0.00,WeatherDisplay:10.37,2013-01-02 09:15:00,
2013-01-02 04:20:00,11.8,7.9,30.00,SW,230,0.0,0.0,84,0.00,CLR,FEW,0.00,WeatherDisplay:10.37,2013-01-02 09:20:00,
2013-01-02 04:30:00,12.7,8.8,30.00,WSW,242,0.0,0.0,84,0.00,CLR,FEW,0.00,WeatherDisplay:10.37,2013-01-02 09:30:00,
2013-01-02 04:40:00,13.5,9.5,30.00,WSW,241,0.0,5.0,84,0.00,CLR,FEW,0.00,WeatherDisplay:10.37,2013-01-02 09:40:00,
2013-01-02 04:50:00,15.1,11.6,30.00,WSW,244,2.0,7.0,86,0.00,CLR,FEW,0.00,WeatherDisplay:10.37,2013-01-02 09:50:00,
2013-01-02 05:00:00,15.3,11.3,30.03,WSW,244,3.0,3.0,84,0.00,CLR,FEW,0.00,WeatherDisplay:10.37,2013-01-02 10:00:00,
2013-01-02 05:05:00,15.1,11.1,30.03,WSW,238,2.0,5.0,84,0.00,CLR,FEW,0.00,WeatherDisplay:10.37,2013-01-02 10:05:00,
2013-01-02 05:10:00,15.3,11.3,30.03,SW,236,2.0,5.0,84,0.00,CLR,FEW,0.00,WeatherDisplay:10.37,2013-01-02 10:10:00,
2013-01-02 05:20:00,14.7,10.5,30.03,WSW,248,2.0,6.0,83,0.00,CLR,FEW,0.00,WeatherDisplay:10.37,2013-01-02 10:20:00,
2013-01-02 05:25:00,14.9,10.7,30.03,WSW,245,3.0,6.0,83,0.00,CLR,FEW,0.00,WeatherDisplay:10.37,2013-01-02 10:25:00,
2013-01-02 05:30:00,14.5,10.3,30.03,WSW,254,5.0,9.0,83,0.00,CLR,FEW,0.00,WeatherDisplay:10.37,2013-01-02 10:30:00,
2013-01-02 05:40:00,14.2,10.0,30.03,WSW,244,6.0,6.0,83,0.00,CLR,FEW,0.00,WeatherDisplay:10.37,2013-01-02 10:40:00,
2013-01-02 05:45:00,14.0,9.8,30.03,WSW,245,5.0,5.0,83,0.00,CLR,FEW,0.00,WeatherDisplay:10.37,2013-01-02 10:45:00,
2013-01-02 05:50:00,14.2,10.2,30.03,WSW,247,3.0,5.0,84,0.00,CLR,FEW,0.00,WeatherDisplay:10.37,2013-01-02 10:50:00,
2013-01-02 06:00:00,13.6,9.7,30.03,WSW,249,3.0,7.0,84,0.00,CLR,FEW,0.00,WeatherDisplay:10.37,2013-01-02 11:00:00,
2013-01-02 06:10:00,13.3,9.4,30.03,WSW,253,2.0,3.0,84,0.00,CLR,FEW,0.00,WeatherDisplay:10.37,2013-01-02 11:10:00,
2013-01-02 06:15:00,13.3,9.4,30.03,WSW,253,2.0,5.0,84,0.00,CLR,FEW,0.00,WeatherDisplay:10.37,2013-01-02 11:15:00,
2013-01-02 06:20:00,13.1,9.2,30.03,WSW,238,2.0,5.0,84,0.00,CLR,FEW,0.00,WeatherDisplay:10.37,2013-01-02 11:20:00,
2013-01-02 06:30:00,12.7,8.8,30.03,WSW,253,2.0,2.0,84,0.00,CLR,FEW,0.00,WeatherDisplay:10.37,2013-01-02 11:30:00,
2013-01-02 06:35:00,12.4,8.5,30.03,WSW,258,1.0,1.0,84,0.00,CLR,FEW,0.00,WeatherDisplay:10.37,2013-01-02 11:35:00,
2013-01-02 06:40:00,12.4,8.5,30.03,WSW,256,1.0,0.0,84,0.00,CLR,FEW,0.00,WeatherDisplay:10.37,2013-01-02 11:40:00,
2013-01-02 06:50:00,12.0,8.1,30.06,WSW,254,0.0,0.0,84,0.00,CLR,FEW,0.00,WeatherDisplay:10.37,2013-01-02 11:50:00,
2013-01-02 07:00:00,11.7,8.0,30.06,SW,234,0.0,1.0,85,0.00,CLR,FEW,0.00,WeatherDisplay:10.37,2013-01-02 12:00:00,
2013-01-02 07:05:00,11.7,8.0,30.06,SW,235,0.0,0.0,85,0.00,CLR,FEW,0.00,WeatherDisplay:10.37,2013-01-02 12:05:00,
2013-01-02 07:10:00,11.7,8.0,30.06,SW,235,0.0,0.0,85,0.00,CLR,FEW,0.00,WeatherDisplay:10.37,2013-01-02 12:10:00,
2013-01-02 07:20:00,11.1,7.8,30.06,WSW,237,1.0,5.0,86,0.00,CLR,FEW,0.00,WeatherDisplay:10.37,2013-01-02 12:20:00,
2013-01-02 07:25:00,11.3,7.9,30.06,WSW,252,1.0,0.0,86,0.00,CLR,FEW,0.00,WeatherDisplay:10.37,2013-01-02 12:25:00,
2013-01-02 07:30:00,10.8,7.4,30.06,West,274,1.0,0.0,86,0.00,CLR,FEW,0.00,WeatherDisplay:10.37,2013-01-02 12:30:00,
2013-01-02 07:40:00,11.7,8.5,30.06,WSW,237,0.0,1.0,87,0.00,CLR,FEW,0.00,WeatherDisplay:10.37,2013-01-02 12:40:00,
2013-01-02 07:50:00,12.6,9.4,30.06,WSW,237,1.0,7.0,87,0.00,CLR,FEW,0.00,WeatherDisplay:10.37,2013-01-02 12:50:00,
2013-01-02 08:00:00,13.5,10.3,30.06,SW,232,3.0,7.0,87,0.00,CLR,FEW,0.00,WeatherDisplay:10.37,2013-01-02 13:00:00,
2013-01-02 08:05:00,14.5,11.6,30.06,WSW,243,6.0,9.0,88,0.00,CLR,FEW,0.00,WeatherDisplay:10.37,2013-01-02 13:05:00,
2013-01-02 08:10:00,14.5,11.6,30.06,WSW,241,7.0,8.0,88,0.00,CLR,FEW,0.00,WeatherDisplay:10.37,2013-01-02 13:10:00,
2013-01-02 08:15:00,15.3,12.3,30.06,WSW,245,7.0,8.0,88,0.00,CLR,FEW,0.00,WeatherDisplay:10.37,2013-01-02 13:15:00,
2013-01-02 08:20:00,14.7,11.6,30.06,WSW,247,7.0,10.0,87,0.00,CLR,FEW,0.00,WeatherDisplay:10.37,2013-01-02 13:20:00,
2013-01-02 08:30:00,15.3,12.1,30.06,West,260,7.0,9.0,87,0.00,CLR,FEW,0.00,WeatherDisplay:10.37,2013-01-02 13:30:00,
2013-01-02 08:40:00,15.6,12.4,30.06,SW,235,7.0,10.0,87,0.00,CLR,FEW,0.00,WeatherDisplay:10.37,2013-01-02 13:40:00,
2013-01-02 08:50:00,15.8,12.6,30.06,WSW,250,7.0,8.0,87,0.00,CLR,FEW,0.00,WeatherDisplay:10.37,2013-01-02 13:50:00,
2013-01-02 09:00:00,15.8,12.4,30.06,WSW,253,8.0,8.0,86,0.00,CLR,FEW,0.00,WeatherDisplay:10.37,2013-01-02 14:00:00,
2013-01-02 09:05:00,16.5,13.1,30.06,WSW,242,7.0,9.0,86,0.00,CLR,FEW,0.00,WeatherDisplay:10.37,2013-01-02 14:05:00,
2013-01-02 09:10:00,16.0,12.3,30.06,SW,233,7.0,9.0,85,0.00,CLR,FEW,0.00,WeatherDisplay:10.37,2013-01-02 14:10:00,
2013-01-02 09:20:00,16.7,12.7,30.06,WSW,242,7.0,10.0,84,0.00,CLR,FEW,0.00,WeatherDisplay:10.37,2013-01-02 14:20:00,
2013-01-02 09:25:00,16.3,12.4,30.06,WSW,244,7.0,10.0,84,0.00,CLR,FEW,0.00,WeatherDisplay:10.37,2013-01-02 14:25:00,
2013-01-02 09:30:00,16.7,12.7,30.06,WSW,246,7.0,7.0,84,0.00,CLR,FEW,0.00,WeatherDisplay:10.37,2013-01-02 14:30:00,
2013-01-02 09:40:00,17.2,13.2,30.06,WSW,238,7.0,7.0,84,0.00,CLR,FEW,0.00,WeatherDisplay:10.37,2013-01-02 14:40:00,
2013-01-02 09:50:00,17.4,13.1,30.06,West,259,5.0,9.0,83,0.00,CLR,FEW,0.00,WeatherDisplay:10.37,2013-01-02 14:50:00,
2013-01-02 10:00:00,17.6,13.0,30.08,WSW,246,6.0,9.0,82,0.00,CLR,FEW,0.00,WeatherDisplay:10.37,2013-01-02 15:00:00,
2013-01-02 10:05:00,17.8,13.5,30.08,WSW,254,6.0,7.0,83,0.00,CLR,FEW,0.00,WeatherDisplay:10.37,2013-01-02 15:05:00,
2013-01-02 10:10:00,18.1,13.8,30.08,WSW,253,5.0,7.0,83,0.00,CLR,FEW,0.00,WeatherDisplay:10.37,2013-01-02 15:10:00,
2013-01-02 10:20:00,18.3,13.7,30.08,WSW,254,5.0,7.0,82,0.00,CLR,FEW,0.00,WeatherDisplay:10.37,2013-01-02 15:20:00,
2013-01-02 10:25:00,17.8,13.2,30.08,WSW,255,3.0,0.0,82,0.00,CLR,FEW,0.00,WeatherDisplay:10.37,2013-01-02 15:25:00,
2013-01-02 10:30:00,18.0,13.4,30.08,WSW,244,3.0,9.0,82,0.00,CLR,FEW,0.00,WeatherDisplay:10.37,2013-01-02 15:30:00,
2013-01-02 10:40:00,18.1,13.3,30.08,SW,228,3.0,9.0,81,0.00,CLR,FEW,0.00,WeatherDisplay:10.37,2013-01-02 15:40:00,
2013-01-02 10:50:00,18.3,13.2,30.08,SW,228,6.0,7.0,80,0.00,CLR,FEW,0.00,WeatherDisplay:10.37,2013-01-02 15:50:00,
2013-01-02 11:00:00,18.5,13.4,30.08,SW,229,7.0,9.0,80,0.00,CLR,FEW,0.00,WeatherDisplay:10.37,2013-01-02 16:00:00,
2013-01-02 11:05:00,18.7,13.5,30.08,SW,229,7.0,9.0,80,0.00,CLR,FEW,0.00,WeatherDisplay:10.37,2013-01-02 16:05:00,
2013-01-02 11:10:00,18.5,13.4,30.08,SW,236,7.0,7.0,80,0.00,CLR,FEW,0.00,WeatherDisplay:10.37,2013-01-02 16:10:00,
2013-01-02 11:20:00,19.6,14.4,30.08,WSW,242,5.0,9.0,80,0.00,CLR,FEW,0.00,WeatherDisplay:10.37,2013-01-02 16:20:00,
2013-01-02 11:25:00,19.2,14.1,30.08,WSW,246,5.0,8.0,80,0.00,CLR,FEW,0.00,WeatherDisplay:10.37,2013-01-02 16:25:00,
2013-01-02 11:30:00,20.3,15.1,30.08,WSW,237,3.0,7.0,80,0.00,CLR,FEW,0.00,WeatherDisplay:10.37,2013-01-02 16:30:00,
2013-01-02 11:40:00,19.8,14.0,30.11,SW,228,6.0,12.0,78,0.00,CLR,FEW,0.00,WeatherDisplay:10.37,2013-01-02 16:40:00,
2013-01-02 11:50:00,20.7,14.9,30.08,WSW,241,7.0,9.0,78,0.00,CLR,FEW,0.00,WeatherDisplay:10.37,2013-01-02 16:50:00,
2013-01-02 12:00:00,20.7,14.6,30.08,SW,221,8.0,10.0,77,0.00,CLR,FEW,0.00,WeatherDisplay:10.37,2013-01-02 17:00:00,
2013-01-02 12:05:00,21.6,15.5,30.08,SW,233,8.0,8.0,77,0.00,CLR,FEW,0.00,WeatherDisplay:10.37,2013-01-02 17:05:00,
2013-01-02 12:10:00,21.2,15.1,30.08,WSW,240,8.0,8.0,77,0.00,CLR,FEW,0.00,WeatherDisplay:10.37,2013-01-02 17:10:00,
2013-01-02 12:20:00,21.9,15.5,30.08,SW,224,6.0,10.0,76,0.00,CLR,FEW,0.00,WeatherDisplay:10.37,2013-01-02 17:20:00,
2013-01-02 12:30:00,22.6,16.2,30.08,West,259,7.0,12.0,76,0.00,CLR,FEW,0.00,WeatherDisplay:10.37,2013-01-02 17:30:00,
2013-01-02 12:40:00,21.6,15.2,30.08,WSW,249,9.0,12.0,76,0.00,CLR,FEW,0.00,WeatherDisplay:10.37,2013-01-02 17:40:00,
2013-01-02 12:50:00,21.0,14.6,30.08,WSW,241,9.0,9.0,76,0.00,CLR,FEW,0.00,WeatherDisplay:10.37,2013-01-02 17:50:00,
2013-01-02 13:00:00,22.8,16.4,30.08,WSW,240,7.0,7.0,76,0.00,CLR,FEW,0.00,WeatherDisplay:10.37,2013-01-02 18:00:00,
2013-01-02 13:05:00,22.8,16.4,30.08,WSW,240,6.0,7.0,76,0.00,CLR,FEW,0.00,WeatherDisplay:10.37,2013-01-02 18:05:00,
2013-01-02 13:10:00,23.2,16.4,30.08,WSW,253,6.0,9.0,75,0.00,CLR,FEW,0.00,WeatherDisplay:10.37,2013-01-02 18:10:00,
2013-01-02 13:20:00,23.0,15.6,30.08,WSW,244,8.0,8.0,73,0.00,CLR,FEW,0.00,WeatherDisplay:10.37,2013-01-02 18:20:00,
2013-01-02 13:25:00,23.0,15.6,30.08,SW,226,8.0,8.0,73,0.00,CLR,FEW,0.00,WeatherDisplay:10.37,2013-01-02 18:25:00,
2013-01-02 13:35:00,22.6,15.6,30.08,SW,220,8.0,9.0,74,0.00,CLR,FEW,0.00,WeatherDisplay:10.37,2013-01-02 18:35:00,
2013-01-02 13:40:00,22.5,15.4,30.08,SW,223,8.0,8.0,74,0.00,CLR,FEW,0.00,WeatherDisplay:10.37,2013-01-02 18:40:00,
2013-01-02 13:45:00,23.2,16.1,30.08,WSW,248,8.0,11.0,74,0.00,CLR,FEW,0.00,WeatherDisplay:10.37,2013-01-02 18:45:00,
2013-01-02 13:50:00,22.6,15.0,30.08,WSW,255,7.0,11.0,72,0.00,CLR,FEW,0.00,WeatherDisplay:10.37,2013-01-02 18:50:00,
2013-01-02 14:00:00,22.6,15.0,30.08,WNW,296,7.0,10.0,72,0.00,CLR,FEW,0.00,WeatherDisplay:10.37,2013-01-02 19:00:00,
2013-01-02 14:05:00,23.2,15.5,30.08,WNW,289,7.0,10.0,72,0.00,CLR,FEW,0.00,WeatherDisplay:10.37,2013-01-02 19:05:00,
2013-01-02 14:10:00,22.6,15.3,30.08,WNW,285,7.0,8.0,73,0.00,CLR,FEW,0.00,WeatherDisplay:10.37,2013-01-02 19:10:00,
2013-01-02 14:20:00,23.2,15.8,30.08,West,273,7.0,10.0,73,0.00,CLR,FEW,0.00,WeatherDisplay:10.37,2013-01-02 19:20:00,
2013-01-02 14:30:00,23.4,15.7,30.08,WNW,288,7.0,8.0,72,0.00,CLR,FEW,0.00,WeatherDisplay:10.37,2013-01-02 19:30:00,
2013-01-02 14:45:00,23.4,15.7,30.08,West,280,5.0,8.0,72,0.00,CLR,FEW,0.00,WeatherDisplay:10.37,2013-01-02 19:45:00,
2013-01-02 14:50:00,23.4,15.7,30.08,West,281,5.0,6.0,72,0.00,CLR,FEW,0.00,WeatherDisplay:10.37,2013-01-02 19:50:00,
2013-01-02 15:00:00,23.4,15.7,30.08,West,276,6.0,8.0,72,0.00,CLR,FEW,0.00,WeatherDisplay:10.37,2013-01-02 20:00:00,
2013-01-02 15:10:00,22.8,15.1,30.08,WSW,248,5.0,5.0,72,0.00,CLR,FEW,0.00,WeatherDisplay:10.37,2013-01-02 20:10:00,
2013-01-02 15:15:00,23.0,15.3,30.08,NW,304,5.0,8.0,72,0.00,CLR,FEW,0.00,WeatherDisplay:10.37,2013-01-02 20:15:00,
2013-01-02 15:20:00,23.4,15.7,30.08,West,261,3.0,5.0,72,0.00,CLR,FEW,0.00,WeatherDisplay:10.37,2013-01-02 20:20:00,
2013-01-02 15:30:00,22.3,14.3,30.08,WSW,241,5.0,10.0,71,0.00,CLR,FEW,0.00,WeatherDisplay:10.37,2013-01-02 20:30:00,
2013-01-02 15:35:00,22.8,15.1,30.08,SW,235,6.0,10.0,72,0.00,CLR,FEW,0.00,WeatherDisplay:10.37,2013-01-02 20:35:00,
2013-01-02 15:40:00,22.3,14.6,30.08,SW,229,7.0,8.0,72,0.00,CLR,FEW,0.00,WeatherDisplay:10.37,2013-01-02 20:40:00,
2013-01-02 15:45:00,22.8,15.5,30.08,SW,232,8.0,8.0,73,0.00,CLR,FEW,0.00,WeatherDisplay:10.37,2013-01-02 20:45:00,
2013-01-02 15:50:00,22.6,15.3,30.08,SW,215,7.0,7.0,73,0.00,CLR,FEW,0.00,WeatherDisplay:10.37,2013-01-02 20:50:00,
2013-01-02 16:00:00,22.3,15.2,30.11,WSW,258,5.0,5.0,74,0.00,CLR,FEW,0.00,WeatherDisplay:10.37,2013-01-02 21:00:00,
2013-01-02 16:05:00,21.9,14.9,30.11,West,281,2.0,4.0,74,0.00,CLR,FEW,0.00,WeatherDisplay:10.37,2013-01-02 21:05:00,
2013-01-02 16:10:00,21.9,14.9,30.11,West,277,2.0,0.0,74,0.00,CLR,FEW,0.00,WeatherDisplay:10.37,2013-01-02 21:10:00,
2013-01-02 16:20:00,21.9,15.2,30.08,West,275,2.0,5.0,75,0.00,CLR,FEW,0.00,WeatherDisplay:10.37,2013-01-02 21:20:00,
2013-01-02 16:30:00,21.4,14.4,30.08,WSW,255,2.0,0.0,74,0.00,CLR,FEW,0.00,WeatherDisplay:10.37,2013-01-02 21:30:00,
2013-01-02 16:35:00,21.6,14.9,30.08,WSW,255,1.0,0.0,75,0.00,CLR,FEW,0.00,WeatherDisplay:10.37,2013-01-02 21:35:00,
2013-01-02 16:40:00,21.6,14.9,30.08,WSW,255,1.0,0.0,75,0.00,CLR,FEW,0.00,WeatherDisplay:10.37,2013-01-02 21:40:00,
2013-01-02 16:50:00,21.2,14.5,30.08,West,270,0.0,0.0,75,0.00,CLR,FEW,0.00,WeatherDisplay:10.37,2013-01-02 21:50:00,
2013-01-02 17:00:00,21.2,14.5,30.08,West,268,0.0,0.0,75,0.00,CLR,FEW,0.00,WeatherDisplay:10.37,2013-01-02 22:00:00,
2013-01-02 17:05:00,20.7,14.0,30.08,West,259,0.0,3.0,75,0.00,CLR,FEW,0.00,WeatherDisplay:10.37,2013-01-02 22:05:00,
2013-01-02 17:10:00,20.5,13.8,30.08,WSW,256,1.0,3.0,75,0.00,CLR,FEW,0.00,WeatherDisplay:10.37,2013-01-02 22:10:00,
2013-01-02 17:20:00,20.7,14.3,30.08,WSW,255,1.0,4.0,76,0.00,CLR,FEW,0.00,WeatherDisplay:10.37,2013-01-02 22:20:00,
2013-01-02 17:30:00,19.8,13.4,30.08,WSW,240,1.0,3.0,76,0.00,CLR,FEW,0.00,WeatherDisplay:10.37,2013-01-02 22:30:00,
2013-01-02 17:35:00,20.3,13.9,30.08,SW,236,1.0,0.0,76,0.00,CLR,FEW,0.00,WeatherDisplay:10.37,2013-01-02 22:35:00,
2013-01-02 17:40:00,20.3,13.9,30.08,SW,235,1.0,0.0,76,0.00,CLR,FEW,0.00,WeatherDisplay:10.37,2013-01-02 22:40:00,
2013-01-02 17:45:00,20.3,13.9,30.08,SW,235,1.0,0.0,76,0.00,CLR,FEW,0.00,WeatherDisplay:10.37,2013-01-02 22:45:00,
2013-01-02 17:50:00,19.9,13.9,30.11,SW,231,0.0,0.0,77,0.00,CLR,FEW,0.00,WeatherDisplay:10.37,2013-01-02 22:50:00,
2013-01-02 18:00:00,19.6,13.8,30.11,SW,230,0.0,0.0,78,0.00,CLR,FEW,0.00,WeatherDisplay:10.37,2013-01-02 23:00:00,
2013-01-02 18:05:00,19.9,14.2,30.11,SW,234,0.0,0.0,78,0.00,CLR,FEW,0.00,WeatherDisplay:10.37,2013-01-02 23:05:00,
2013-01-02 18:10:00,19.4,13.7,30.11,WSW,237,0.0,0.0,78,0.00,CLR,FEW,0.00,WeatherDisplay:10.37,2013-01-02 23:10:00,
2013-01-02 18:20:00,19.9,14.5,30.11,WSW,240,0.0,0.0,79,0.00,CLR,FEW,0.00,WeatherDisplay:10.37,2013-01-02 23:20:00,
2013-01-02 18:30:00,19.8,14.0,30.11,WSW,240,0.0,0.0,78,0.00,CLR,FEW,0.00,WeatherDisplay:10.37,2013-01-02 23:30:00,
2013-01-02 18:35:00,20.1,14.7,30.11,WSW,240,0.0,0.0,79,0.00,CLR,FEW,0.00,WeatherDisplay:10.37,2013-01-02 23:35:00,
2013-01-02 18:40:00,19.8,14.0,30.11,WSW,240,0.0,0.0,78,0.00,CLR,FEW,0.00,WeatherDisplay:10.37,2013-01-02 23:40:00,
2013-01-02 18:50:00,19.4,13.7,30.11,WSW,247,0.0,0.0,78,0.00,CLR,FEW,0.00,WeatherDisplay:10.37,2013-01-02 23:50:00,
2013-01-02 19:00:00,18.3,12.9,30.11,WSW,252,0.0,0.0,79,0.00,CLR,FEW,0.00,WeatherDisplay:10.37,2013-01-03 00:00:00,
2013-01-02 19:05:00,18.1,12.7,30.11,WSW,251,0.0,0.0,79,0.00,CLR,FEW,0.00,WeatherDisplay:10.37,2013-01-03 00:05:00,
2013-01-02 19:10:00,17.8,12.4,30.11,WSW,250,0.0,0.0,79,0.00,CLR,FEW,0.00,WeatherDisplay:10.37,2013-01-03 00:10:00,
2013-01-02 19:15:00,17.4,12.0,30.11,WSW,250,0.0,0.0,79,0.00,CLR,FEW,0.00,WeatherDisplay:10.37,2013-01-03 00:15:00,
2013-01-02 19:20:00,16.7,11.3,30.11,WSW,250,0.0,0.0,79,0.00,CLR,FEW,0.00,WeatherDisplay:10.37,2013-01-03 00:20:00,
2013-01-02 19:30:00,16.7,11.3,30.11,WSW,250,0.0,0.0,79,0.00,CLR,FEW,0.00,WeatherDisplay:10.37,2013-01-03 00:30:00,
2013-01-02 19:40:00,16.3,11.3,30.11,WSW,250,0.0,0.0,80,0.00,CLR,FEW,0.00,WeatherDisplay:10.37,2013-01-03 00:40:00,
2013-01-02 19:50:00,16.0,10.9,30.11,WSW,250,0.0,0.0,80,0.00,CLR,FEW,0.00,WeatherDisplay:10.37,2013-01-03 00:50:00,
2013-01-02 20:00:00,15.3,10.2,30.11,WSW,250,0.0,0.0,80,0.00,CLR,FEW,0.00,WeatherDisplay:10.37,2013-01-03 01:00:00,
2013-01-02 20:05:00,15.3,10.2,30.11,WSW,250,0.0,0.0,80,0.00,CLR,FEW,0.00,WeatherDisplay:10.37,2013-01-03 01:05:00,
2013-01-02 20:15:00,14.2,9.1,30.11,WSW,250,0.0,0.0,80,0.00,CLR,FEW,0.00,WeatherDisplay:10.37,2013-01-03 01:15:00,
2013-01-02 20:20:00,14.0,9.2,30.11,WSW,250,0.0,0.0,81,0.00,CLR,FEW,0.00,WeatherDisplay:10.37,2013-01-03 01:20:00,
2013-01-02 20:30:00,13.6,9.2,30.11,WSW,250,0.0,0.0,82,0.00,CLR,FEW,0.00,WeatherDisplay:10.37,2013-01-03 01:30:00,
2013-01-02 20:40:00,13.1,8.9,30.11,WSW,250,0.0,0.0,83,0.00,CLR,FEW,0.00,WeatherDisplay:10.37,2013-01-03 01:40:00,
2013-01-02 20:45:00,12.9,8.7,30.11,WSW,250,0.0,0.0,83,0.00,CLR,FEW,0.00,WeatherDisplay:10.37,2013-01-03 01:45:00,
2013-01-02 20:55:00,12.9,9.0,30.11,WSW,250,0.0,0.0,84,0.00,CLR,FEW,0.00,WeatherDisplay:10.37,2013-01-03 01:55:00,
2013-01-02 21:00:00,12.6,8.6,30.11,WSW,250,0.0,0.0,84,0.00,CLR,FEW,0.00,WeatherDisplay:10.37,2013-01-03 02:00:00,
2013-01-02 21:05:00,12.9,9.3,30.11,WSW,250,0.0,0.0,85,0.00,CLR,FEW,0.00,WeatherDisplay:10.37,2013-01-03 02:05:00,
2013-01-02 21:10:00,12.9,9.3,30.11,WSW,250,0.0,0.0,85,0.00,CLR,FEW,0.00,WeatherDisplay:10.37,2013-01-03 02:10:00,
2013-01-02 21:15:00,12.2,8.6,30.11,WSW,250,0.0,0.0,85,0.00,CLR,FEW,0.00,WeatherDisplay:10.37,2013-01-03 02:15:00,
2013-01-02 21:20:00,12.4,8.7,30.11,WSW,250,0.0,0.0,85,0.00,CLR,FEW,0.00,WeatherDisplay:10.37,2013-01-03 02:20:00,
2013-01-02 21:30:00,12.2,8.8,30.11,WSW,250,0.0,0.0,86,0.00,CLR,FEW,0.00,WeatherDisplay:10.37,2013-01-03 02:30:00,
2013-01-02 21:35:00,12.2,8.8,30.11,WSW,250,0.0,0.0,86,0.00,CLR,FEW,0.00,WeatherDisplay:10.37,2013-01-03 02:35:00,
2013-01-02 21:40:00,12.2,8.8,30.11,WSW,250,0.0,0.0,86,0.00,CLR,FEW,0.00,WeatherDisplay:10.37,2013-01-03 02:40:00,
2013-01-02 21:45:00,12.2,8.8,30.11,WSW,250,0.0,0.0,86,0.00,CLR,FEW,0.00,WeatherDisplay:10.37,2013-01-03 02:45:00,
2013-01-02 21:50:00,12.6,9.4,30.11,WSW,250,0.0,0.0,87,0.00,CLR,FEW,0.00,WeatherDisplay:10.37,2013-01-03 02:50:00,
2013-01-02 21:55:00,12.6,9.4,30.11,WSW,250,0.0,0.0,87,0.00,CLR,FEW,0.00,WeatherDisplay:10.37,2013-01-03 02:55:00,
2013-01-02 22:00:00,12.7,9.6,30.11,SW,230,0.0,3.0,87,0.00,CLR,FEW,0.00,WeatherDisplay:10.37,2013-01-03 03:00:00,
2013-01-02 22:05:00,13.3,10.1,30.11,SW,215,0.0,0.0,87,0.00,CLR,FEW,0.00,WeatherDisplay:10.37,2013-01-03 03:05:00,
2013-01-02 22:10:00,13.6,10.5,30.11,SW,215,0.0,0.0,87,0.00,CLR,FEW,0.00,WeatherDisplay:10.37,2013-01-03 03:10:00,
2013-01-02 22:15:00,13.8,10.7,30.11,SW,215,0.0,0.0,87,0.00,CLR,FEW,0.00,WeatherDisplay:10.37,2013-01-03 03:15:00,
2013-01-02 22:25:00,14.5,11.4,30.11,SW,215,0.0,0.0,87,0.00,CLR,FEW,0.00,WeatherDisplay:10.37,2013-01-03 03:25:00,
2013-01-02 22:30:00,14.5,11.4,30.11,SW,215,0.0,0.0,87,0.00,CLR,FEW,0.00,WeatherDisplay:10.37,2013-01-03 03:30:00,
2013-01-02 22:35:00,15.1,11.9,30.11,SW,215,0.0,0.0,87,0.00,CLR,FEW,0.00,WeatherDisplay:10.37,2013-01-03 03:35:00,
2013-01-02 22:45:00,15.1,11.9,30.11,SW,215,0.0,0.0,87,0.00,CLR,FEW,0.00,WeatherDisplay:10.37,2013-01-03 03:45:00,
2013-01-02 22:55:00,14.7,11.6,30.11,SW,215,0.0,0.0,87,0.00,CLR,FEW,0.00,WeatherDisplay:10.37,2013-01-03 03:55:00,
2013-01-02 23:00:00,14.5,11.4,30.11,SW,215,0.0,0.0,87,0.00,CLR,FEW,0.00,WeatherDisplay:10.37,2013-01-03 04:00:00,
2013-01-02 23:05:00,14.7,11.6,30.11,SW,215,0.0,0.0,87,0.00,CLR,FEW,0.00,WeatherDisplay:10.37,2013-01-03 04:05:00,
2013-01-02 23:10:00,14.7,11.6,30.11,SW,215,0.0,0.0,87,0.00,CLR,FEW,0.00,WeatherDisplay:10.37,2013-01-03 04:10:00,
2013-01-02 23:20:00,14.9,11.7,30.11,SW,215,0.0,0.0,87,0.00,CLR,FEW,0.00,WeatherDisplay:10.37,2013-01-03 04:20:00,
2013-01-02 23:30:00,14.0,10.8,30.11,SW,215,0.0,0.0,87,0.00,CLR,FEW,0.00,WeatherDisplay:10.37,2013-01-03 04:30:00,
2013-01-02 23:40:00,13.6,10.5,30.11,SW,215,0.0,0.0,87,0.00,CLR,FEW,0.00,WeatherDisplay:10.37,2013-01-03 04:40:00,
2013-01-02 23:50:00,12.6,9.2,30.11,SW,215,0.0,0.0,86,0.00,CLR,FEW,0.00,WeatherDisplay:10.37,2013-01-03 04:50:00,